Terminal Aerodrome Forecast
Issued by NWS

Home | Current Version | Previous Version | Graphics & Text | Print | Product List | Glossary On
Versions: 1 2 3 4 5 6 7 8 9 10 11 12 13 14 15 16 17 18 19 20 21 22 23 24 25 26 27 28 29 30 31 32
000
FTUS45 KGGW 292300
TAFOLF
TAF
KOLF 292320Z 3000/3024 VRB04KT P6SM SCT200
     FM300900 00000KT 3SM BR SCT001 SCT180
     FM301600 28006KT P6SM SCT200=

USA.gov is the U.S. government's official web portal to all federal, state and local government web resources and services.